FW0443 Weather Reports


Display with metric or nautical units.
time (UTC)temp
F
wind
direction
speed
MPH
gust
MPH
rain 1hr
in
rain 24hr
in
rain mn
in
humidity
%
barometer
mb
20260506080118 54 292 0.0 0.0 0.00 0.03 0.00 100 1109.1
20260506073215 54 270 1.0 2.0 0.00 0.03 0.00 100 1109.1
20260506072216 54 292 1.0 2.0 0.00 0.03 0.00 100 1108.7
20260506071216 54 292 1.0 2.0 0.00 0.04 0.00 100 1108.7
20260506070215 54 270 1.0 2.0 0.00 0.05 0.00 100 1108.7
20260506062320 55 90 1.0 2.0 0.00 0.09 0.06 100 1108.3
20260506061419 55 90 0.0 0.0 0.00 0.10 0.06 100 1108.3
20260506060419 55 90 0.0 0.0 0.00 0.10 0.06 100 1108.3
20260506050520 56 45 0.0 0.0 0.00 0.15 0.06 100 1107.5
20260506044618 56 225 0.0 0.0 0.00 0.15 0.06 100 1107.5
20260506043619 56 225 0.0 0.0 0.00 0.15 0.06 100 1107.5
20260506041619 56 225 0.0 0.0 0.00 0.16 0.06 100 1107.1
20260506035620 56 157 0.0 0.0 0.00 0.18 0.06 100 1106.8
20260506034618 56 112 0.0 0.0 0.00 0.21 0.06 100 1107.1
20260506033621 56 112 0.0 0.0 0.00 0.22 0.06 100 1106.8
20260506030621 56 112 0.0 0.0 0.00 0.26 0.06 100 1106.4
20260506025621 57 112 0.0 0.0 0.00 0.28 0.06 100 1106.0
20260506024720 57 112 0.0 1.0 0.00 0.30 0.06 100 1106.0
20260506022819 57 101 0.0 2.0 0.00 0.32 0.06 100 1106.0
20260506021819 57 90 1.0 2.0 0.00 0.32 0.06 100 1106.0
20260506020819 57 97 2.0 4.0 0.00 0.32 0.06 100 1105.6
20260506015820 57 90 1.0 2.0 0.00 0.33 0.06 100 1106.0
20260506014820 57 90 1.0 3.0 0.00 0.34 0.06 100 1106.0
20260506013822 58 90 2.0 3.0 0.00 0.35 0.06 100 1106.0
20260506011820 58 80 1.0 4.0 0.00 0.35 0.06 100 1106.0
20260506005920 58 83 1.0 3.0 0.00 0.35 0.06 100 1106.0
20260506003019 58 99 1.0 2.0 0.00 0.36 0.06 100 1105.9
20260506002022 58 90 1.0 2.0 0.00 0.36 0.06 100 1106.0
20260506001022 58 90 1.0 2.0 0.00 0.37 0.06 100 1105.7
20260506000118 58 111 1.0 3.0 0.00 0.38 0.06 100 1105.7
20260505235218 58 112 1.0 2.0 0.00 0.40 0.06 100 1105.7
20260505234234 58 106 1.0 3.0 0.00 0.41 0.06 100 1105.7
20260505233221 58 112 1.0 2.0 0.00 0.42 0.06 100 1105.7
20260505232221 58 95 2.0 4.0 0.00 0.43 0.06 100 1105.7
20260505231220 58 112 1.0 2.0 0.00 0.44 0.06 100 1105.7
20260505230219 58 111 1.0 2.0 0.00 0.46 0.06 100 1105.7
20260505225220 58 135 1.0 2.0 0.00 0.47 0.06 100 1105.7
20260505224221 58 101 1.0 3.0 0.00 0.48 0.06 100 1105.7
20260505223319 58 112 0.0 2.0 0.00 0.49 0.06 100 1105.7
20260505222320 58 157 0.0 0.0 0.00 0.50 0.06 100 1105.7
20260505221319 57 157 0.0 2.0 0.00 0.51 0.06 100 1106.0
20260505220320 58 157 1.0 2.0 0.00 0.52 0.06 100 1106.0
20260505215320 57 168 1.0 2.0 0.00 0.52 0.06 100 1106.0
20260505214321 57 225 0.0 0.0 0.00 0.52 0.06 100 1106.0
20260505213320 57 136 0.0 1.0 0.00 0.53 0.06 100 1106.0
20260505212418 57 135 1.0 2.0 0.00 0.54 0.06 100 1106.0
20260505211420 57 180 0.0 1.0 0.00 0.54 0.06 100 1106.0
20260505210420 57 270 0.0 1.0 0.00 0.54 0.06 100 1106.0
20260505204419 58 220 1.0 2.0 0.00 0.55 0.06 100 1106.0
20260505203519 59 135 1.0 2.0 0.00 0.55 0.06 100 1106.0
20260505202520 59 242 1.0 2.0 0.00 0.55 0.06 100 1106.0
20260505201519 58 272 1.0 2.0 0.00 0.55 0.06 100 1106.0
20260505200521 59 270 1.0 4.0 0.00 0.56 0.06 100 1106.0
20260505195522 59 247 0.0 2.0 0.00 0.56 0.06 100 1106.0
20260505194519 60 135 1.0 2.0 0.00 0.56 0.06 100 1106.4
20260505193519 60 262 1.0 2.0 0.00 0.56 0.06 100 1106.4
20260505192519 61 204 1.0 3.0 0.00 0.56 0.06 100 1106.0
20260505190522 58 180 0.0 2.0 0.00 0.56 0.06 100 1106.0
20260505185619 59 157 0.0 2.0 0.00 0.57 0.06 100 1106.0
20260505184620 59 157 0.0 2.0 0.00 0.57 0.06 100 1106.0
20260505183620 57 180 0.0 0.0 0.00 0.59 0.06 100 1106.0
20260505182620 56 225 1.0 2.0 0.00 0.59 0.06 100 1106.0
20260505175719 55 135 1.0 2.0 0.00 0.60 0.06 100 1105.7
20260505173738 55 135 1.0 2.0 0.00 0.60 0.06 100 1105.3
20260505172818 55 157 0.0 2.0 0.00 0.60 0.06 100 1105.3
20260505171820 54 202 0.0 2.0 0.00 0.60 0.06 100 1105.3
20260505170823 53 180 0.0 2.0 0.00 0.60 0.06 100 1105.3
20260505165819 53 284 0.0 1.0 0.00 0.60 0.06 100 1105.3
20260505164821 53 157 1.0 2.0 0.00 0.61 0.06 100 1104.9
20260505162821 52 180 0.0 2.0 0.00 0.61 0.06 100 1104.9
20260505161819 51 246 1.0 2.0 0.00 0.61 0.06 100 1104.9
20260505160821 51 180 0.0 0.0 0.00 0.61 0.06 100 1104.9
20260505152920 50 233 1.0 2.0 0.00 0.61 0.06 100 1104.5
20260505151920 50 187 0.0 2.0 0.00 0.61 0.06 100 1104.5
20260505130121 49 90 1.0 2.0 0.00 0.61 0.06 100 1103.7
20260505124120 49 135 0.0 0.0 0.01 0.61 0.06 100 1103.7
20260505123122 49 135 0.0 0.0 0.01 0.61 0.06 100 1103.3
20260505122121 49 135 0.0 0.0 0.01 0.61 0.06 100 1103.3
20260505121120 49 135 1.0 2.0 0.01 0.61 0.06 100 1103.3
20260505120121 49 135 0.0 1.0 0.01 0.61 0.06 100 1103.3
20260505113120 49 112 1.0 2.0 0.00 0.60 0.05 100 1103.7
20260505112121 49 135 0.0 0.0 0.00 0.60 0.05 100 1103.7
20260505111119 49 135 1.0 2.0 0.00 0.60 0.05 100 1103.7
20260505102119 49 90 1.0 2.0 0.01 0.60 0.05 100 1103.7
20260505101119 49 90 0.0 0.0 0.01 0.60 0.05 100 1103.7
20260505100218 49 67 1.0 2.0 0.01 0.60 0.05 100 1103.7
20260505095219 49 58 1.0 2.0 0.01 0.60 0.05 100 1104.1
20260505094220 49 90 1.0 2.0 0.02 0.60 0.05 100 1103.7
20260505093221 49 90 1.0 2.0 0.02 0.60 0.05 100 1104.1
20260505092221 49 67 0.0 0.0 0.01 0.59 0.04 100 1104.5
20260505091320 49 90 1.0 2.0 0.01 0.59 0.04 100 1104.1
20260505090321 49 90 1.0 2.0 0.01 0.59 0.04 100 1104.5
20260505085419 49 90 1.0 2.0 0.01 0.59 0.04 100 1104.1
20260505084421 49 63 0.0 2.0 0.00 0.57 0.03 100 1104.4
20260505083420 49 22 0.0 0.0 0.00 0.57 0.03 100 1104.4
20260505082419 49 360 1.0 2.0 0.00 0.57 0.03 100 1104.5
20260505081420 49 358 1.0 2.0 0.01 0.57 0.03 100 1104.5
20260505080419 49 360 1.0 2.0 0.01 0.57 0.03 100 1104.5